RLU428 URMM-URSS

Flight info

Callsign RLU428
Flight time 0h 37m
Altitude 28000
Route ABELA5M ABELA B967 ERSAR G487 BINOL BINOL1K
Aircraft CRJ7/M-SDFGIRWY/S

Departure

Time 2026-04-12 02:53
Airport Mineralnye Vody Airport (URMM)

Arrival

Time 2026-04-12 03:31
Airport Sochi International Airport (URSS)
Time Latitude Longitude Altitude Speed Heading
2026-04-12 02:42 44.21825 43.08907 1049 ft 0 kts 212°
2026-04-12 02:43 44.21838 43.08917 1049 ft 2 kts 211°
2026-04-12 02:43 44.21852 43.08929 1049 ft 2 kts 209°
2026-04-12 02:43 44.21866 43.08939 1049 ft 2 kts 201°
2026-04-12 02:43 44.21882 43.08940 1049 ft 2 kts 146°
2026-04-12 02:44 44.21888 43.08932 1049 ft 0 kts 126°
2026-04-12 02:47 44.21887 43.08934 1049 ft 1 kts 126°
2026-04-12 02:47 44.21880 43.08947 1049 ft 3 kts 124°
2026-04-12 02:48 44.21865 43.08981 1049 ft 5 kts 123°
2026-04-12 02:48 44.21838 43.09034 1049 ft 8 kts 128°
2026-04-12 02:48 44.21803 43.09105 1049 ft 10 kts 123°
2026-04-12 02:48 44.21762 43.09194 1049 ft 12 kts 123°
2026-04-12 02:49 44.21709 43.09298 1049 ft 14 kts 133°
2026-04-12 02:49 44.21644 43.09412 1049 ft 16 kts 121°
2026-04-12 02:49 44.21581 43.09550 1049 ft 18 kts 122°
2026-04-12 02:49 44.21518 43.09698 1049 ft 16 kts 111°
2026-04-12 02:50 44.21527 43.09862 1049 ft 18 kts 77°
2026-04-12 02:50 44.21557 43.10040 1049 ft 20 kts 77°
2026-04-12 02:50 44.21597 43.10207 1050 ft 16 kts 45°
2026-04-12 02:50 44.21641 43.10254 1049 ft 0 kts 33°
2026-04-12 02:51 44.21645 43.10257 1049 ft 2 kts 32°
2026-04-12 02:51 44.21663 43.10274 1048 ft 5 kts 33°
2026-04-12 02:51 44.21701 43.10307 1048 ft 8 kts 33°
2026-04-12 02:52 44.21750 43.10320 1050 ft 7 kts 335°
2026-04-12 02:52 44.21779 43.10281 1051 ft 0 kts 305°
2026-04-12 02:52 44.21818 43.10199 1050 ft 39 kts 302°
2026-04-12 02:53 44.22096 43.09590 1056 ft 107 kts 302°
2026-04-12 02:53 44.22582 43.08500 1133 ft 151 kts 302°
2026-04-12 02:53 44.23706 43.05973 2642 ft 158 kts 304°
2026-04-12 02:54 44.24311 43.04641 3414 ft 169 kts 304°
2026-04-12 02:54 44.24991 43.03174 4035 ft 189 kts 304°
2026-04-12 02:54 44.25733 43.01572 4775 ft 205 kts 303°
2026-04-12 02:54 44.26542 42.99811 5407 ft 226 kts 303°
2026-04-12 02:55 44.27405 42.97911 6097 ft 243 kts 303°
2026-04-12 02:55 44.28334 42.95852 6817 ft 258 kts 302°
2026-04-12 02:55 44.29302 42.93688 7659 ft 265 kts 302°
2026-04-12 02:55 44.30283 42.91480 8591 ft 270 kts 302°
2026-04-12 02:56 44.31281 42.89231 9503 ft 275 kts 302°
2026-04-12 02:56 44.32016 42.86757 10331 ft 281 kts 276°
2026-04-12 02:56 44.31750 42.84061 11152 ft 284 kts 250°
2026-04-12 02:56 44.30943 42.81531 11996 ft 287 kts 238°
2026-04-12 02:57 44.29828 42.79245 12834 ft 289 kts 231°
2026-04-12 02:57 44.28582 42.77020 13660 ft 293 kts 230°
2026-04-12 02:57 44.27308 42.74788 14451 ft 294 kts 229°
2026-04-12 02:57 44.26044 42.72561 15331 ft 291 kts 229°
2026-04-12 02:58 44.24796 42.70352 16127 ft 289 kts 229°
2026-04-12 02:58 44.23556 42.68146 16903 ft 289 kts 229°
2026-04-12 02:58 44.22332 42.65928 17587 ft 292 kts 228°
2026-04-12 02:58 44.21056 42.63604 17764 ft 310 kts 229°
2026-04-12 02:59 44.19763 42.61119 18068 ft 326 kts 237°
2026-04-12 02:59 44.19045 42.58026 18461 ft 343 kts 253°
2026-04-12 02:59 44.18691 42.54757 19000 ft 349 kts 258°
2026-04-12 02:59 44.18507 42.51351 19528 ft 353 kts 260°
2026-04-12 03:00 44.18368 42.47922 20049 ft 356 kts 260°
2026-04-12 03:00 44.18218 42.44472 20548 ft 358 kts 258°
2026-04-12 03:00 44.18018 42.41001 21044 ft 360 kts 257°
2026-04-12 03:00 44.17797 42.37513 21553 ft 362 kts 257°
2026-04-12 03:01 44.17579 42.33995 22070 ft 365 kts 258°
2026-04-12 03:01 44.17341 42.30473 22550 ft 367 kts 258°
2026-04-12 03:01 44.17098 42.26917 22987 ft 369 kts 258°
2026-04-12 03:01 44.16864 42.23342 23422 ft 371 kts 258°
2026-04-12 03:02 44.16640 42.19800 23835 ft 373 kts 258°
2026-04-12 03:02 44.16413 42.16188 24179 ft 374 kts 258°
2026-04-12 03:02 44.16181 42.12557 24511 ft 376 kts 257°
2026-04-12 03:02 44.15947 42.08921 24818 ft 377 kts 257°
2026-04-12 03:03 44.15708 42.05276 25108 ft 379 kts 257°
2026-04-12 03:03 44.15468 42.01614 25483 ft 380 kts 257°
2026-04-12 03:03 44.15225 41.97940 25878 ft 382 kts 257°
2026-04-12 03:03 44.14985 41.94298 26240 ft 384 kts 257°
2026-04-12 03:04 44.14739 41.90586 26599 ft 386 kts 258°
2026-04-12 03:04 44.14487 41.86858 26927 ft 388 kts 257°
2026-04-12 03:04 44.14234 41.83106 27275 ft 390 kts 257°
2026-04-12 03:04 44.14063 41.80567 27464 ft 391 kts 257°
2026-04-12 03:05 44.13809 41.76793 27633 ft 392 kts 257°
2026-04-12 03:05 44.13553 41.73051 27776 ft 394 kts 257°
2026-04-12 03:05 44.13295 41.69249 27923 ft 395 kts 257°
2026-04-12 03:05 44.13030 41.65418 27919 ft 399 kts 257°
2026-04-12 03:06 44.12762 41.61548 27926 ft 403 kts 257°
2026-04-12 03:06 44.12489 41.57647 27942 ft 407 kts 257°
2026-04-12 03:06 44.12216 41.53716 28066 ft 408 kts 257°
2026-04-12 03:06 44.11905 41.49793 28127 ft 406 kts 253°
2026-04-12 03:07 44.10225 41.42344 28175 ft 405 kts 243°
2026-04-12 03:07 44.07967 41.35152 28178 ft 412 kts 240°
2026-04-12 03:08 44.05646 41.27793 28184 ft 420 kts 242°
2026-04-12 03:08 44.03356 41.20308 28172 ft 419 kts 242°
2026-04-12 03:09 44.01072 41.12877 28189 ft 416 kts 242°
2026-04-12 03:09 43.98795 41.05482 28194 ft 416 kts 242°
2026-04-12 03:10 43.96532 40.98155 28210 ft 415 kts 242°
2026-04-12 03:10 43.94256 40.90806 28184 ft 414 kts 242°
2026-04-12 03:11 43.91980 40.83476 28184 ft 413 kts 242°
2026-04-12 03:11 43.89702 40.76163 28214 ft 413 kts 242°
2026-04-12 03:12 43.87416 40.68859 28188 ft 413 kts 242°
2026-04-12 03:12 43.85120 40.61643 27578 ft 400 kts 242°
2026-04-12 03:13 43.84004 40.58165 27028 ft 390 kts 242°
2026-04-12 03:13 43.82946 40.54780 26487 ft 386 kts 242°
2026-04-12 03:13 43.81889 40.51385 25938 ft 382 kts 242°
2026-04-12 03:13 43.80838 40.48008 25433 ft 380 kts 242°
2026-04-12 03:14 43.79775 40.44673 24963 ft 377 kts 242°
2026-04-12 03:14 43.78698 40.41367 24466 ft 375 kts 242°
2026-04-12 03:14 43.77625 40.38088 23951 ft 373 kts 243°
2026-04-12 03:14 43.76569 40.34809 23441 ft 372 kts 243°
2026-04-12 03:15 43.75516 40.31536 22897 ft 371 kts 243°
2026-04-12 03:15 43.74454 40.28290 22315 ft 370 kts 243°
2026-04-12 03:15 43.73389 40.25051 21823 ft 369 kts 243°
2026-04-12 03:15 43.72349 40.21864 21381 ft 367 kts 243°
2026-04-12 03:16 43.71308 40.18650 20927 ft 365 kts 243°
2026-04-12 03:16 43.70270 40.15456 20519 ft 364 kts 244°
2026-04-12 03:16 43.69042 40.12431 20343 ft 359 kts 227°
2026-04-12 03:16 43.67162 40.10205 20220 ft 357 kts 216°
2026-04-12 03:17 43.65057 40.08336 19876 ft 362 kts 208°
2026-04-12 03:17 43.62768 40.06823 19528 ft 367 kts 204°
2026-04-12 03:17 43.60407 40.05439 19179 ft 371 kts 203°
2026-04-12 03:17 43.58017 40.04041 18835 ft 374 kts 203°
2026-04-12 03:18 43.55623 40.02627 18493 ft 374 kts 204°
2026-04-12 03:18 43.53283 40.01177 18126 ft 373 kts 205°
2026-04-12 03:18 43.50919 39.99694 17727 ft 371 kts 204°
2026-04-12 03:18 43.48591 39.98235 17286 ft 363 kts 204°
2026-04-12 03:19 43.46305 39.96815 16852 ft 356 kts 204°
2026-04-12 03:19 43.44032 39.95485 16402 ft 351 kts 201°
2026-04-12 03:19 43.41736 39.94390 15842 ft 345 kts 198°
2026-04-12 03:19 43.39480 39.93418 15290 ft 335 kts 197°
2026-04-12 03:20 43.37307 39.92495 14749 ft 327 kts 197°
2026-04-12 03:20 43.35153 39.91564 14194 ft 319 kts 198°
2026-04-12 03:20 43.33064 39.90622 13507 ft 313 kts 198°
2026-04-12 03:20 43.31001 39.89684 12738 ft 310 kts 198°
2026-04-12 03:21 43.28964 39.88759 11997 ft 307 kts 198°
2026-04-12 03:21 43.26968 39.87854 11275 ft 305 kts 198°
2026-04-12 03:21 43.24963 39.86944 10555 ft 302 kts 198°
2026-04-12 03:21 43.22974 39.86042 9840 ft 299 kts 198°
2026-04-12 03:22 43.21002 39.85146 9072 ft 296 kts 198°
2026-04-12 03:22 43.19057 39.84267 8330 ft 293 kts 198°
2026-04-12 03:22 43.17132 39.83396 7605 ft 289 kts 198°
2026-04-12 03:22 43.15238 39.82515 6891 ft 285 kts 202°
2026-04-12 03:23 43.13690 39.80898 6164 ft 282 kts 234°
2026-04-12 03:23 43.13036 39.78454 5448 ft 278 kts 266°
2026-04-12 03:23 43.13424 39.75911 4781 ft 272 kts 296°
2026-04-12 03:23 43.14325 39.73682 4272 ft 263 kts 304°
2026-04-12 03:24 43.15677 39.72071 3905 ft 258 kts 338°
2026-04-12 03:24 43.17415 39.71880 3746 ft 257 kts 15°
2026-04-12 03:24 43.19061 39.72884 3679 ft 259 kts 28°
2026-04-12 03:24 43.20651 39.73993 3620 ft 253 kts 19°
2026-04-12 03:25 43.22349 39.74406 3603 ft 242 kts 12°
2026-04-12 03:25 43.23765 39.75454 3606 ft 233 kts 40°
2026-04-12 03:25 43.24967 39.76889 3600 ft 225 kts 41°
2026-04-12 03:25 43.26083 39.78307 3602 ft 213 kts 48°
2026-04-12 03:26 43.26999 39.79870 3450 ft 212 kts 53°
2026-04-12 03:26 43.27884 39.81528 3092 ft 219 kts 54°
2026-04-12 03:26 43.28845 39.83177 2721 ft 223 kts 39°
2026-04-12 03:26 43.30139 39.84369 2363 ft 225 kts 32°
2026-04-12 03:27 43.31443 39.85478 2176 ft 212 kts 30°
2026-04-12 03:27 43.32645 39.86413 2105 ft 182 kts 27°
2026-04-12 03:27 43.33668 39.87174 2048 ft 154 kts 26°
2026-04-12 03:27 43.34569 39.87815 2002 ft 142 kts 27°
2026-04-12 03:28 43.35450 39.88455 1817 ft 141 kts 28°
2026-04-12 03:28 43.36297 39.89086 1626 ft 137 kts 28°
2026-04-12 03:28 43.37134 39.89716 1435 ft 137 kts 28°
2026-04-12 03:28 43.37953 39.90336 1256 ft 135 kts 28°
2026-04-12 03:29 43.38776 39.90957 1070 ft 134 kts 28°
2026-04-12 03:29 43.39592 39.91572 899 ft 134 kts 28°
2026-04-12 03:29 43.40418 39.92197 735 ft 137 kts 28°
2026-04-12 03:29 43.41258 39.92826 562 ft 136 kts 27°
2026-04-12 03:30 43.42077 39.93441 376 ft 133 kts 28°
2026-04-12 03:30 43.42889 39.94044 238 ft 134 kts 28°
2026-04-12 03:30 43.43707 39.94662 75 ft 129 kts 29°
2026-04-12 03:30 43.44339 39.95140 75 ft 76 kts 29°
2026-04-12 03:31 43.44657 39.95381 83 ft 31 kts 28°
2026-04-12 03:31 43.44816 39.95500 89 ft 23 kts 29°
2026-04-12 03:31 43.44924 39.95575 87 ft 14 kts 12°
2026-04-12 03:31 43.44984 39.95560 89 ft 4 kts 337°
2026-04-12 03:32 43.45033 39.95527 89 ft 7 kts 332°
2026-04-12 03:32 43.45081 39.95467 89 ft 13 kts 297°
2026-04-12 03:32 43.45084 39.95339 88 ft 16 kts 245°
2026-04-12 03:32 43.45037 39.95196 86 ft 18 kts 245°
2026-04-12 03:33 43.44992 39.95083 83 ft 15 kts 226°
2026-04-12 03:33 43.44941 39.94972 75 ft 12 kts 244°
2026-04-12 03:33 43.44896 39.94845 65 ft 14 kts 244°
2026-04-12 03:33 43.44875 39.94781 68 ft 7 kts 244°
2026-04-12 03:34 43.44851 39.94713 69 ft 10 kts 247°
2026-04-12 03:34 43.44824 39.94631 68 ft 10 kts 245°
2026-04-12 03:34 43.44790 39.94530 68 ft 13 kts 244°
2026-04-12 03:34 43.44750 39.94414 67 ft 15 kts 245°
2026-04-12 03:35 43.44711 39.94298 68 ft 12 kts 245°
2026-04-12 03:35 43.44668 39.94175 71 ft 16 kts 245°
2026-04-12 03:35 43.44629 39.94061 69 ft 7 kts 245°
2026-04-12 03:35 43.44583 39.94021 69 ft 10 kts 195°
2026-04-12 03:36 43.44533 39.93937 65 ft 15 kts 245°
2026-04-12 03:36 43.44489 39.93809 60 ft 13 kts 245°
2026-04-12 03:36 43.44459 39.93709 56 ft 3 kts 276°
2026-04-12 03:36 43.44473 39.93693 56 ft 1 kts 347°
2026-04-12 03:37 43.44488 39.93693 55 ft 4 kts
2026-04-12 03:37 43.44503 39.93694 57 ft 0 kts